This is the latest recevied weather packets stored in our database for station/object KF4CQ. If no packets are shown the sender has not sent any weather packets the latest 10 day(s).
| Time | Temp. | Humidity | Pressure | Rain* | Wind** | Luminosity | Snow |
|---|---|---|---|---|---|---|---|
| 1777818564 | 20.56° C | 77% | 1019.7 hPa | 0 mm | - | 500 W/m² | - |
| 1777818262 | 20° C | 77% | 1019.8 hPa | 0 mm | - | 471 W/m² | - |
| 1777817957 | 20.56° C | 77% | 1019.7 hPa | 0 mm | - | 455 W/m² | - |
| 1777817655 | 20° C | 78% | 1019.7 hPa | 0 mm | - | 438 W/m² | - |
| 1777817352 | 19.44° C | 79% | 1019.8 hPa | 0 mm | - | 425 W/m² | - |
| 1777817049 | 20.56° C | 78% | 1019.8 hPa | 0 mm | - | 406 W/m² | - |
| 1777816744 | 20° C | 80% | 1019.6 hPa | 0 mm | - | 390 W/m² | - |
| 1777816443 | 18.89° C | 82% | 1019.7 hPa | 0 mm | - | 374 W/m² | - |
| 1777816140 | 19.44° C | 82% | 1019.6 hPa | 0 mm | - | 358 W/m² | - |
| 1777815837 | 18.89° C | 83% | 1019.7 hPa | 0 mm | - | 338 W/m² | - |
| 1777815535 | 18.89° C | 83% | 1019.6 hPa | 0 mm | - | 319 W/m² | - |
| 1777815232 | 18.33° C | 85% | 1019.6 hPa | 0 mm | - | 296 W/m² | - |
| 1777814928 | 18.89° C | 84% | 1019.4 hPa | 0 mm | - | 282 W/m² | - |
| 1777814625 | 18.33° C | 85% | 1019.2 hPa | 0 mm | - | 264 W/m² | - |
| 1777814322 | 17.78° C | 87% | 1019.5 hPa | 0 mm | - | 240 W/m² | - |
| 1777814018 | 17.78° C | 87% | 1019.5 hPa | 0 mm | - | 222 W/m² | - |
| 1777813716 | 18.33° C | 87% | 1019.3 hPa | 0 mm | - | 202 W/m² | - |
| 1777813413 | 17.78° C | 88% | 1019.3 hPa | 0 mm | - | 184 W/m² | - |
| 1777813110 | 17.78° C | 91% | 1019.2 hPa | 0 mm | - | 148 W/m² | - |
| 1777812808 | 17.22° C | 90% | 1019.1 hPa | 0 mm | - | 124 W/m² | - |
| 1777812504 | 17.22° C | 92% | 1019 hPa | 0 mm | - | 79 W/m² | - |
| 1777812202 | 17.22° C | 94% | 1019 hPa | 0 mm | - | 73 W/m² | - |
| 1777811900 | 16.67° C | 95% | 1019.1 hPa | 0 mm | - | 98 W/m² | - |
| 1777811599 | 16.11° C | 96% | 1019.1 hPa | 0 mm | - | 61 W/m² | - |
| 1777811294 | 16.11° C | 96% | 1019 hPa | 0 mm | - | 62 W/m² | - |
* Rain latest hour (hover to see other rain measurements)
** Current wind speed in m/s (hover to see current wind gust speed)